Погода в Кембридже

Канада     43°22′14″N   80°19′08″W
темп.,
°C
ветер,
м/с
пор.,
м/с
влажн.,
%
обл.,
%
осадки,
мм/ч
давл.,
гПа
погр.,
м
19 апреля, пн
пн1923:00+5зсз22605 0.0 101127
02:00+4зюз22625 0.0 101121
05:00+3зюз22645 0.0 101010
08:00+6юз246929 0.0 1010120
11:00+13юз584839 0.0 10091559
14:00+14юз8114657 0.1 10072214
17:00+13юз81255100 0.1 10062007
20:00+6зсз6991100 4.5 1008775
20 апреля, вт
вт2023:00+4зюз51089100 2.5 1009712
02:00+3з6107720 2.6 1011721
05:000з6117823 0.0 1012756
08:000з61173100 0.0 1014946
11:00+4з8115284 0.0 10151610
14:00+6з81043100 0.0 10161974
17:00+5зсз6943100 0.0 10161942
20:00+3зсз2454100 0.0 1016177
21 апреля, ср
ср2123:00+2зюз1268100 0.1 1016128
02:00+1с3465100 0.2 1016521
05:00−1ссз3677100 0.7 1015629
08:00−1сз586260 0.7 1016982
11:00+2сз6746100 0.0 10161757
14:00+4сз8939100 0.0 10152247
17:00+2сз8943100 0.0 10162001
20:00−1сз6105584 0.0 10171173
22 апреля, чт
чт2223:00−1зсз51065100 0.0 1018672
02:00−1зсз596094 0.0 1017888
05:00−1зсз5106572 0.0 1017966
08:000зсз6116645 0.1 10181363
11:00+4зсз8123835 0.0 10181954
14:00+6зсз91238100 0.0 10182269
17:00+6зсз8123743 0.0 10182208
20:00+4зюз49546 0.0 1018196
23 апреля, пт
пт2323:00+1з410675 0.0 1019195
02:00+2з615675 0.0 1019420
05:00+1з615685 0.0 1020392
08:00+3з615640 0.0 1021425
11:00+10з79480 0.0 10211038
14:00+13з79415 0.0 10201866
17:00+13зюз794294 0.0 10192195
20:00+8юз61163100 0.0 1020393